This is the latest recevied weather packets stored in our database for station/object KE8CZD. If no packets are shown the sender has not sent any weather packets the latest 10 day(s).
| Time | Temp. | Humidity | Pressure | Rain* | Wind** | Luminosity | Snow |
|---|---|---|---|---|---|---|---|
| 1778097644 | 12.22° C | 33% | 1009.2 hPa | 0 mm | - | - | - |
| 1778097284 | 11.11° C | 36% | 1009.2 hPa | 0 mm | - | - | - |
| 1778096924 | 10.56° C | 36% | 1009.4 hPa | 0 mm | - | - | - |
| 1778096565 | 10.56° C | 38% | 1009.5 hPa | 0 mm | - | - | - |
| 1778096204 | 10.56° C | 38% | 1009.5 hPa | 0 mm | - | - | - |
| 1778095843 | 10.56° C | 38% | 1009.5 hPa | 0 mm | - | - | - |
| 1778095484 | 10.56° C | 37% | 1009.7 hPa | 0 mm | - | - | - |
| 1778095123 | 10.56° C | 35% | 0 hPa | 0 mm | - | - | - |
| 1778094763 | 11.11° C | 35% | 1009.4 hPa | 0 mm | - | - | - |
| 1778094405 | 11.11° C | 37% | 1009.5 hPa | 0 mm | - | - | - |
| 1778094044 | 10.56° C | 37% | 0 hPa | 0 mm | - | - | - |
| 1778093685 | 10.56° C | 36% | 1009.4 hPa | 0 mm | - | - | - |
| 1778093324 | 10.56° C | 36% | 0 hPa | 0 mm | - | - | - |
| 1778092965 | 10.56° C | 35% | 1009.4 hPa | 0 mm | - | - | - |
| 1778092605 | 10.56° C | 35% | 1009.3 hPa | 0 mm | - | - | - |
| 1778092245 | 11.11° C | 34% | 1009.3 hPa | 0 mm | - | - | - |
| 1778091884 | 11.11° C | 36% | 0 hPa | 0 mm | - | - | - |
| 1778091524 | 10.56° C | 38% | 1009.4 hPa | 0 mm | - | - | - |
| 1778091164 | 10.56° C | 39% | 1009.3 hPa | 0 mm | - | - | - |
| 1778090806 | 10.56° C | 40% | 1009.4 hPa | 0 mm | - | - | - |
| 1778090444 | 10° C | 40% | 1009.5 hPa | 0 mm | - | - | - |
| 1778090085 | 10° C | 41% | 1009.7 hPa | 0 mm | - | - | - |
| 1778089725 | 10° C | 42% | 1009.9 hPa | 0 mm | - | - | - |
| 1778089364 | 10° C | 43% | 1009.9 hPa | 0 mm | - | - | - |
| 1778089005 | 10° C | 42% | 1009.9 hPa | 0 mm | - | - | - |
* Rain latest hour (hover to see other rain measurements)
** Current wind speed in m/s (hover to see current wind gust speed)